EW9310 Weather Reports


Display with metric or nautical units.
time (UTC)temp
F
wind
direction
speed
MPH
gust
MPH
rain 1hr
in
rain 24hr
in
rain mn
in
humidity
%
barometer
mb
20260509162008 55 142 3.0 6.0 0.00 0.00 0.00 74 1008.0
20260509161520 54 115 3.0 6.0 0.00 0.00 0.00 76 1008.0
20260509161006 53 134 1.0 6.0 0.00 0.00 0.00 76 1008.1
20260509160507 53 96 2.0 8.0 0.00 0.00 0.00 76 1008.2
20260509160022 53 145 5.0 8.0 0.00 0.00 0.00 75 1008.2
20260509155508 53 104 4.0 8.0 0.00 0.00 0.00 75 1008.2
20260509155010 54 95 2.0 8.0 0.00 0.00 0.00 74 1008.2
20260509154508 54 144 4.0 7.0 0.00 0.00 0.00 74 1008.3
20260509154006 54 81 4.0 8.0 0.00 0.00 0.00 74 1008.3
20260509153509 54 154 5.0 9.0 0.00 0.00 0.00 74 1008.3
20260509153019 54 153 4.0 10.0 0.00 0.00 0.00 74 1008.3
20260509152504 54 122 4.0 10.0 0.00 0.00 0.00 73 1008.3
20260509152009 54 83 7.0 10.0 0.00 0.00 0.00 73 1008.5
20260509151519 54 110 2.0 8.0 0.00 0.00 0.00 74 1008.6
20260509151007 54 98 3.0 8.0 0.00 0.01 0.00 74 1008.6
20260509150507 54 64 3.0 8.0 0.00 0.01 0.00 75 1008.6
20260509150022 53 154 3.0 9.0 0.00 0.01 0.00 75 1008.7
20260509145509 53 178 3.0 9.0 0.00 0.01 0.00 75 1008.7
20260509145014 53 120 5.0 9.0 0.00 0.01 0.00 75 1008.7
20260509144510 53 103 5.0 9.0 0.00 0.01 0.00 74 1008.8
20260509144006 53 108 3.0 8.0 0.00 0.01 0.00 75 1008.9
20260509143504 53 147 3.0 9.0 0.00 0.01 0.00 74 1008.8
20260509143018 52 157 2.0 9.0 0.00 0.01 0.00 77 1009.0
20260509142509 52 56 4.0 9.0 0.00 0.01 0.00 75 1009.0
20260509142006 51 78 5.0 9.0 0.00 0.01 0.00 75 1009.0
20260509141529 51 106 4.0 9.0 0.00 0.01 0.00 75 1009.0
20260509141009 52 98 5.0 9.0 0.00 0.01 0.00 74 1009.1
20260509140511 51 154 4.0 7.0 0.00 0.01 0.00 75 1009.1
20260509140026 51 128 4.0 8.0 0.00 0.01 0.00 75 1009.1
20260509135508 51 360 2.0 8.0 0.00 0.01 0.00 75 1009.1
20260509135011 50 21 3.0 8.0 0.00 0.01 0.00 76 1009.1
20260509134524 50 90 5.0 8.0 0.00 0.01 0.00 76 1009.1
20260509134003 49 121 2.0 9.0 0.00 0.01 0.00 77 1009.2
20260509133506 49 107 5.0 9.0 0.00 0.01 0.00 77 1009.2
20260509133024 49 80 3.0 6.0 0.00 0.01 0.00 77 1009.2
20260509132509 48 154 2.0 6.0 0.00 0.01 0.00 77 1009.3
20260509132011 48 92 3.0 6.0 0.00 0.01 0.00 77 1009.4
20260509131530 48 105 1.0 7.0 0.00 0.01 0.00 77 1009.5
20260509131013 48 132 3.0 7.0 0.00 0.01 0.00 77 1009.5
20260509130514 48 98 3.0 7.0 0.00 0.01 0.00 78 1009.5
20260509130026 47 109 3.0 7.0 0.00 0.01 0.00 78 1009.6
20260509125508 47 94 3.0 7.0 0.00 0.01 0.00 78 1009.5
20260509125007 47 121 0.0 6.0 0.00 0.01 0.00 78 1009.5
20260509124514 47 112 2.0 6.0 0.00 0.01 0.00 78 1009.4
20260509124008 46 82 2.0 5.0 0.00 0.01 0.00 78 1009.4
20260509123507 46 142 3.0 5.0 0.00 0.01 0.00 79 1009.4
20260509123020 46 122 2.0 5.0 0.00 0.01 0.00 79 1009.5
20260509122508 45 123 2.0 4.0 0.00 0.01 0.00 79 1009.5
20260509122009 45 114 2.0 4.0 0.00 0.01 0.00 79 1009.5
20260509121531 45 109 1.0 5.0 0.00 0.01 0.00 81 1009.5
20260509121010 45 97 2.0 6.0 0.00 0.01 0.00 81 1009.6
20260509120509 44 94 2.0 6.0 0.00 0.01 0.00 80 1009.6
20260509120027 44 148 1.0 4.0 0.00 0.01 0.00 81 1009.6
20260509115506 44 128 1.0 3.0 0.00 0.01 0.00 81 1009.6
20260509115007 44 109 1.0 3.0 0.00 0.01 0.00 81 1009.6
20260509114517 44 96 1.0 3.0 0.00 0.01 0.00 81 1009.6
20260509114009 43 90 1.0 3.0 0.00 0.01 0.00 82 1009.7
20260509113507 43 72 1.0 5.0 0.00 0.01 0.00 82 1009.7
20260509113021 43 89 1.0 5.0 0.00 0.01 0.00 82 1009.6
20260509112509 43 132 1.0 5.0 0.00 0.01 0.00 83 1009.6
20260509112010 42 109 2.0 5.0 0.00 0.01 0.00 84 1009.5
20260509111527 42 51 0.0 4.0 0.00 0.01 0.00 86 1009.6
20260509111011 41 119 1.0 3.0 0.00 0.01 0.00 88 1009.5
20260509110510 41 98 0.0 2.0 0.00 0.01 0.00 88 1009.5
20260509110024 41 112 0.0 2.0 0.00 0.01 0.00 89 1009.5
20260509105510 40 127 0.0 3.0 0.00 0.01 0.00 89 1009.5
20260509105010 40 109 0.0 3.0 0.00 0.01 0.00 91 1009.5
20260509104522 39 132 0.0 2.0 0.00 0.01 0.00 91 1009.4
20260509104006 39 140 0.0 2.0 0.00 0.01 0.00 91 1009.5
20260509103507 39 176 0.0 2.0 0.00 0.01 0.00 91 1009.5
20260509103025 39 131 0.0 2.0 0.00 0.01 0.00 92 1009.5
20260509102512 38 132 0.0 2.0 0.00 0.01 0.00 91 1009.5
20260509102010 38 150 0.0 2.0 0.00 0.01 0.00 92 1009.6
20260509101528 38 101 0.0 2.0 0.00 0.01 0.00 91 1009.5
20260509101010 38 99 0.0 2.0 0.00 0.01 0.00 92 1009.5
20260509100509 37 155 0.0 2.0 0.00 0.01 0.00 91 1009.4
20260509100026 37 155 0.0 2.0 0.00 0.01 0.00 91 1009.5
20260509095507 37 155 0.0 2.0 0.00 0.01 0.00 91 1009.4
20260509095007 37 80 0.0 2.0 0.00 0.01 0.00 92 1009.4
20260509094523 37 171 0.0 3.0 0.00 0.01 0.00 92 1009.3
20260509094007 37 157 0.0 3.0 0.00 0.01 0.00 92 1009.3
20260509093508 37 167 0.0 3.0 0.00 0.01 0.00 91 1009.4
20260509093028 37 167 0.0 3.0 0.00 0.01 0.00 92 1009.4
20260509092509 37 167 0.0 3.0 0.00 0.01 0.00 92 1009.5
20260509092011 37 167 0.0 3.0 0.00 0.01 0.00 92 1009.4
20260509091533 37 163 0.0 2.0 0.00 0.01 0.00 92 1009.5
20260509091011 36 163 0.0 2.0 0.00 0.01 0.00 92 1009.5
20260509090508 36 180 0.0 2.0 0.00 0.01 0.00 91 1009.5
20260509090020 36 180 0.0 2.0 0.00 0.01 0.00 91 1009.6
20260509085508 36 180 0.0 2.0 0.00 0.01 0.00 91 1009.7
20260509085007 36 180 0.0 2.0 0.00 0.01 0.00 91 1009.8
20260509084528 36 180 0.0 2.0 0.00 0.01 0.00 92 1009.9
20260509084004 36 180 0.0 2.0 0.00 0.01 0.00 91 1009.9
20260509083507 36 180 0.0 2.0 0.00 0.01 0.00 91 1010.0
20260509083026 36 180 0.0 2.0 0.00 0.01 0.00 91 1009.9
20260509082503 36 180 0.0 2.0 0.00 0.01 0.00 91 1010.0
20260509082003 36 180 0.0 1.0 0.00 0.01 0.00 91 1010.1
20260509081514 35 180 0.0 1.0 0.00 0.01 0.00 90 1010.2
20260509081007 35 180 0.0 1.0 0.00 0.01 0.00 90 1010.2
20260509080510 35 180 0.0 2.0 0.00 0.01 0.00 91 1010.2
20260509080025 35 180 0.0 2.0 0.00 0.01 0.00 90 1010.2
20260509075505 35 180 0.0 2.0 0.00 0.01 0.00 90 1010.2
20260509075013 35 180 0.0 2.0 0.00 0.01 0.00 90 1010.2
20260509074527 35 180 0.0 2.0 0.00 0.01 0.00 90 1010.3
20260509074003 35 180 0.0 2.0 0.00 0.01 0.00 90 1010.3
20260509073503 35 180 0.0 2.0 0.00 0.01 0.00 90 1010.3
20260509073041 35 180 0.0 2.0 0.00 0.01 0.00 90 1010.3
20260509072503 35 180 0.0 0.0 0.00 0.01 0.00 90 1010.3
20260509072007 35 180 0.0 0.0 0.00 0.01 0.00 89 1010.3
20260509071514 35 180 0.0 2.0 0.00 0.01 0.00 89 1010.3
20260509071006 35 180 0.0 2.0 0.00 0.01 0.00 89 1010.3
20260509070511 35 180 0.0 0.0 0.00 0.01 0.00 89 1010.3
20260509070022 36 180 0.0 0.0 0.00 0.01 0.00 89 1010.3
20260509065510 36 180 0.0 2.0 0.00 0.01 0.00 89 1010.4
20260509065011 36 180 0.0 2.0 0.00 0.01 0.00 89 1010.4
20260509064526 36 180 0.0 2.0 0.00 0.01 0.00 89 1010.4
20260509064002 36 188 0.0 2.0 0.00 0.01 0.00 90 1010.4
20260509063504 36 192 0.0 3.0 0.00 0.01 0.00 90 1010.5
20260509063010 35 160 1.0 3.0 0.00 0.01 0.00 91 1010.5
20260509062508 35 167 0.0 3.0 0.00 0.01 0.00 91 1010.7
20260509062007 35 167 0.0 3.0 0.00 0.01 0.00 91 1010.7
20260509061516 35 139 0.0 2.0 0.00 0.01 0.00 91 1010.7
20260509061006 34 215 0.0 2.0 0.00 0.01 0.00 91 1010.8
20260509060509 34 215 0.0 2.0 0.00 0.02 0.00 91 1010.9
20260509060024 34 215 0.0 0.0 0.00 0.02 0.00 90 1011.0
20260509055510 34 215 0.0 0.0 0.00 0.02 0.00 90 1011.1
20260509055009 34 215 0.0 0.0 0.00 0.02 0.00 90 1011.1
20260509054535 34 215 0.0 0.0 0.00 0.02 0.00 90 1011.1
20260509054004 34 215 0.0 0.0 0.00 0.02 0.00 90 1011.1
20260509053511 34 215 0.0 0.0 0.00 0.02 0.00 89 1011.2
20260509053031 35 215 0.0 2.0 0.00 0.02 0.00 90 1011.2
20260509052504 35 215 0.0 2.0 0.00 0.02 0.00 89 1011.3
20260509052003 35 215 0.0 0.0 0.00 0.02 0.00 89 1011.2
20260509051527 35 215 0.0 0.0 0.00 0.02 0.00 89 1011.3
20260509051007 35 215 0.0 0.0 0.00 0.02 0.00 89 1011.3
20260509050511 35 215 0.0 0.0 0.00 0.02 0.00 88 1011.3
20260509050036 35 215 0.0 0.0 0.00 0.02 0.00 88 1011.4
20260509045507 35 215 0.0 0.0 0.00 0.02 0.00 88 1011.4
20260509045010 35 215 0.0 0.0 0.00 0.02 0.00 88 1011.5
20260509044526 35 215 0.0 0.0 0.00 0.02 0.00 87 1011.5
20260509044002 35 215 0.0 0.0 0.00 0.02 0.00 87 1011.5
20260509043506 35 215 0.0 0.0 0.00 0.02 0.00 86 1011.6
20260509043033 36 215 0.0 0.0 0.00 0.02 0.00 86 1011.6
20260509042509 36 215 0.0 0.0 0.00 0.02 0.00 86 1011.6
20260509042007 36 215 0.0 0.0 0.00 0.02 0.00 86 1011.7
20260509041522 36 215 0.0 2.0 0.00 0.02 0.00 86 1011.7
20260509041012 36 215 0.0 2.0 0.00 0.02 0.00 86 1011.7
20260509040510 36 215 0.0 1.0 0.00 0.02 0.00 86 1011.7
20260509040025 36 215 0.0 1.0 0.00 0.02 0.00 85 1011.7
20260509035509 37 215 0.0 0.0 0.00 0.02 0.02 85 1011.7
20260509035007 37 215 0.0 0.0 0.00 0.02 0.02 85 1011.7
20260509034513 37 215 0.0 2.0 0.00 0.02 0.02 85 1011.7
20260509034010 37 215 0.0 2.0 0.00 0.02 0.02 85 1011.6
20260509033505 37 215 0.0 0.0 0.00 0.02 0.02 85 1011.7
20260509033020 37 215 0.0 0.0 0.00 0.02 0.02 83 1011.6
20260509032506 37 215 0.0 0.0 0.00 0.02 0.02 83 1011.6
20260509032012 37 215 0.0 0.0 0.00 0.02 0.02 83 1011.7
20260509031523 37 215 0.0 0.0 0.00 0.02 0.02 83 1011.6
20260509031010 37 215 0.0 2.0 0.00 0.02 0.02 83 1011.6
20260509030516 37 215 0.0 2.0 0.00 0.02 0.02 83 1011.7
20260509030036 37 215 0.0 1.0 0.00 0.02 0.02 82 1011.7
20260509025510 37 215 0.0 1.0 0.00 0.02 0.02 81 1011.7
20260509025007 38 215 0.0 0.0 0.00 0.02 0.02 81 1011.7
20260509024511 38 215 0.0 1.0 0.00 0.02 0.02 81 1011.7
20260509024010 38 215 0.0 1.0 0.00 0.02 0.02 81 1011.7
20260509023510 38 215 0.0 1.0 0.00 0.02 0.02 80 1011.7
20260509023029 38 215 0.0 0.0 0.00 0.02 0.02 80 1011.7
20260509022506 39 215 0.0 0.0 0.00 0.02 0.02 78 1011.8
20260509022011 39 215 0.0 0.0 0.00 0.02 0.02 78 1011.8
20260509021530 39 215 0.0 0.0 0.00 0.02 0.02 77 1011.9
20260509021012 40 215 0.0 0.0 0.00 0.02 0.02 77 1011.9
20260509020514 40 215 0.0 0.0 0.00 0.02 0.02 77 1012.0
20260509020028 40 215 0.0 0.0 0.00 0.02 0.02 77 1011.9
20260509015509 41 215 0.0 0.0 0.00 0.02 0.02 76 1011.9
20260509015011 41 215 0.0 0.0 0.00 0.02 0.02 76 1011.9
20260509014514 41 215 0.0 0.0 0.00 0.02 0.02 76 1011.8
20260509014006 41 215 0.0 0.0 0.00 0.02 0.02 74 1011.8
20260509013507 42 215 0.0 0.0 0.00 0.02 0.02 74 1011.7
20260509013041 42 215 0.0 0.0 0.00 0.02 0.02 74 1011.6
20260509012509 42 215 0.0 0.0 0.00 0.02 0.02 73 1011.5
20260509012008 43 215 0.0 2.0 0.00 0.02 0.02 72 1011.4
20260509011528 43 215 0.0 2.0 0.00 0.02 0.02 72 1011.3
20260509011009 43 215 0.0 1.0 0.00 0.02 0.02 71 1011.2
20260509010513 44 215 0.0 2.0 0.00 0.02 0.02 70 1011.2
20260509010031 44 215 0.0 2.0 0.00 0.02 0.02 69 1011.2
20260509005510 44 215 0.0 2.0 0.00 0.02 0.02 66 1011.1
20260509005009 45 215 0.0 2.0 0.00 0.02 0.02 64 1011.0
20260509004534 45 215 0.0 2.0 0.00 0.02 0.02 63 1011.0
20260509004011 46 250 0.0 0.0 0.00 0.02 0.02 65 1011.0
20260509003511 46 250 0.0 0.0 0.00 0.02 0.02 63 1011.0
20260509003022 47 250 0.0 0.0 0.00 0.02 0.02 61 1011.0
20260509002509 47 250 0.0 0.0 0.00 0.02 0.02 60 1011.0
20260509002007 48 250 0.0 0.0 0.00 0.02 0.02 57 1010.8
20260509001524 49 250 0.0 0.0 0.00 0.02 0.02 53 1010.8
20260509001008 49 250 0.0 0.0 0.00 0.02 0.02 51 1010.8
20260509000503 49 250 0.0 2.0 0.00 0.02 0.02 51 1010.8
20260509000010 50 250 0.0 2.0 0.00 0.02 0.02 49 1010.7
20260508235503 51 250 0.0 0.0 0.00 0.02 0.02 49 1010.7
20260508235007 51 250 0.0 2.0 0.00 0.02 0.02 48 1010.7
20260508234514 52 250 0.0 2.0 0.00 0.02 0.02 49 1010.7
20260508234007 52 250 0.0 2.0 0.00 0.02 0.02 48 1010.7
20260508233511 52 250 0.0 2.0 0.00 0.02 0.02 43 1010.7
20260508233003 53 250 0.0 2.0 0.00 0.02 0.02 43 1010.7
20260508232502 54 250 0.0 2.0 0.00 0.02 0.02 45 1010.6
20260508232009 54 250 0.0 2.0 0.00 0.02 0.02 46 1010.6
20260508231505 54 250 0.0 2.0 0.00 0.02 0.02 43 1010.5
20260508231004 55 250 0.0 2.0 0.00 0.02 0.02 43 1010.6
20260508230504 55 250 0.0 2.0 0.00 0.02 0.02 41 1010.5
20260508230033 55 250 0.0 2.0 0.00 0.02 0.02 42 1010.5
20260508225507 56 250 0.0 2.0 0.00 0.02 0.02 40 1010.5
20260508225012 56 250 0.0 2.0 0.00 0.02 0.02 38 1010.5
20260508224529 56 331 0.0 2.0 0.00 0.02 0.02 37 1010.6
20260508224009 56 21 0.0 1.0 0.00 0.02 0.02 39 1010.7
20260508223503 55 9 1.0 1.0 0.00 0.02 0.02 38 1010.8
20260508223027 55 169 0.0 3.0 0.00 0.02 0.02 39 1010.7
20260508222504 55 186 2.0 4.0 0.00 0.02 0.02 36 1010.7
20260508222003 56 283 1.0 4.0 0.00 0.02 0.02 37 1010.6
20260508221526 56 214 1.0 4.0 0.00 0.02 0.02 35 1010.7
20260508221013 57 214 1.0 3.0 0.00 0.02 0.02 36 1010.7
20260508220503 56 24 2.0 3.0 0.00 0.02 0.02 41 1010.8
20260508220016 56 293 0.0 6.0 0.00 0.02 0.02 38 1010.8
20260508215512 55 5 2.0 8.0 0.00 0.02 0.02 38 1010.8
20260508215007 55 219 3.0 8.0 0.00 0.02 0.02 38 1010.9
20260508214520 55 209 1.0 4.0 0.00 0.02 0.02 37 1010.9
20260508214014 55 343 1.0 7.0 0.00 0.02 0.02 44 1011.0
20260508213511 55 284 1.0 9.0 0.00 0.02 0.02 39 1010.9
20260508213026 56 360 3.0 8.0 0.00 0.02 0.02 39 1010.9
20260508212508 56 239 1.0 4.0 0.00 0.02 0.02 41 1010.9
20260508212004 56 49 2.0 5.0 0.00 0.02 0.02 41 1010.9
20260508211510 56 300 2.0 4.0 0.00 0.02 0.02 41 1010.9
20260508211003 55 209 1.0 4.0 0.00 0.02 0.02 47 1010.9
20260508210511 55 167 1.0 3.0 0.00 0.02 0.02 47 1011.0
20260508210017 55 328 1.0 4.0 0.00 0.02 0.02 44 1011.0
20260508205508 55 21 2.0 4.0 0.00 0.02 0.02 43 1011.0
20260508205007 56 286 0.0 5.0 0.00 0.02 0.02 43 1011.1
20260508204522 57 15 2.0 5.0 0.00 0.02 0.02 43 1011.1
20260508204002 57 292 1.0 7.0 0.00 0.02 0.02 45 1011.1
20260508203512 57 349 1.0 7.0 0.00 0.02 0.02 47 1011.1
20260508203006 56 326 2.0 6.0 0.00 0.02 0.02 44 1010.9
20260508202506 56 338 1.0 6.0 0.00 0.02 0.02 51 1011.0
20260508202013 55 217 1.0 10.0 0.00 0.02 0.02 49 1011.2
20260508201511 55 185 6.0 11.0 0.00 0.02 0.02 48 1011.2
20260508201010 55 230 3.0 11.0 0.00 0.02 0.02 52 1011.3
20260508200504 55 192 5.0 12.0 0.00 0.02 0.02 51 1011.3
20260508200031 54 338 6.0 12.0 0.00 0.02 0.02 51 1011.4
20260508195505 53 246 4.0 7.0 0.00 0.02 0.02 52 1011.5
20260508195018 53 283 1.0 4.0 0.00 0.02 0.02 54 1011.6
20260508194526 53 304 2.0 4.0 0.00 0.02 0.02 54 1011.6
20260508194008 53 27 1.0 3.0 0.00 0.02 0.02 56 1011.7
20260508193503 52 319 1.0 8.0 0.00 0.02 0.02 58 1011.6
20260508193031 51 267 3.0 8.0 0.00 0.02 0.02 55 1011.6
20260508192506 53 267 5.0 11.0 0.00 0.02 0.02 52 1011.6
20260508192006 53 194 3.0 11.0 0.00 0.02 0.02 56 1011.5
20260508191518 52 277 4.0 10.0 0.00 0.02 0.02 54 1011.6
20260508191008 52 263 3.0 10.0 0.00 0.02 0.02 57 1011.6
20260508190507 53 229 6.0 13.0 0.00 0.02 0.02 54 1011.6
20260508190022 52 207 1.0 13.0 0.00 0.02 0.02 58 1011.7
20260508185507 52 263 5.0 9.0 0.00 0.02 0.02 58 1011.7
20260508185014 52 81 3.0 11.0 0.00 0.02 0.02 60 1011.8
20260508184508 52 225 6.0 12.0 0.00 0.02 0.02 59 1011.8
20260508184003 52 218 5.0 12.0 0.00 0.02 0.02 58 1011.8
20260508183511 52 232 4.0 10.0 0.00 0.02 0.02 57 1011.8
20260508183027 52 234 5.0 12.0 0.00 0.02 0.02 59 1011.9
20260508182504 52 209 5.0 12.0 0.00 0.02 0.02 60 1012.0
20260508182006 51 299 2.0 10.0 0.00 0.02 0.02 66 1012.1
20260508181539 50 181 4.0 11.0 0.00 0.02 0.02 62 1012.3
20260508181007 51 238 3.0 11.0 0.00 0.02 0.02 62 1012.3
20260508180511 50 276 6.0 11.0 0.00 0.02 0.02 62 1012.2
20260508180026 50 215 1.0 8.0 0.00 0.02 0.02 66 1012.2
20260508175508 49 230 2.0 12.0 0.00 0.02 0.02 66 1012.2
20260508175011 48 202 5.0 13.0 0.00 0.02 0.02 67 1012.3
20260508174508 47 205 5.0 13.0 0.00 0.02 0.02 66 1012.3
20260508174003 48 245 5.0 13.0 0.00 0.02 0.02 67 1012.3
20260508173504 48 262 6.0 13.0 0.00 0.02 0.02 66 1012.1
20260508173016 48 227 6.0 13.0 0.00 0.02 0.02 65 1012.3
20260508172510 48 278 3.0 10.0 0.00 0.02 0.02 66 1012.4
20260508172011 48 309 1.0 10.0 0.00 0.02 0.02 67 1012.4
20260508171522 48 202 2.0 9.0 0.00 0.02 0.02 66 1012.3
20260508171018 48 249 4.0 8.0 0.00 0.02 0.02 64 1012.4
20260508170507 48 246 3.0 8.0 0.00 0.02 0.02 65 1012.4
20260508170034 48 253 3.0 9.0 0.00 0.02 0.02 66 1012.4
20260508165507 48 248 4.0 11.0 0.00 0.02 0.02 63 1012.4
20260508165004 48 254 5.0 11.0 0.00 0.02 0.02 61 1012.4
20260508164510 49 221 3.0 9.0 0.00 0.02 0.02 62 1012.5
20260508164014 50 213 3.0 8.0 0.00 0.02 0.02 63 1012.4
20260508163506 50 307 1.0 9.0 0.00 0.02 0.02 68 1012.4
20260508163028 48 275 1.0 9.0 0.00 0.02 0.02 72 1012.4
20260508162510 48 248 3.0 10.0 0.00 0.02 0.02 70 1012.6